GW1804 Weather Reports


time (UTC)temp
F
wind
direction
speed
knots
gust
knots
rain 1hr
in
rain 24hr
in
rain mn
in
humidity
%
barometer
mb
20260505193532 65 281 4.3 9.6 0.00 0.20 0.20 70 1015.7
20260505193046 65 238 3.5 8.7 0.00 0.20 0.20 71 1015.7
20260505192534 65 263 3.5 8.7 0.00 0.20 0.20 70 1015.7
20260505192032 65 248 3.5 9.6 0.00 0.20 0.20 71 1015.8
20260505191550 65 279 3.5 11.3 0.00 0.20 0.20 70 1015.7
20260505191035 64 317 3.5 11.3 0.00 0.20 0.20 70 1015.7
20260505190534 64 280 3.5 8.7 0.00 0.20 0.20 70 1015.8
20260505190046 64 274 2.6 8.7 0.00 0.20 0.20 71 1015.7
20260505185532 64 315 4.3 10.4 0.00 0.20 0.20 70 1015.7
20260505185032 64 298 5.2 10.4 0.00 0.20 0.20 71 1015.7
20260505184546 64 276 2.6 10.4 0.00 0.20 0.20 71 1015.7
20260505184032 63 279 4.3 9.6 0.00 0.20 0.20 72 1015.8
20260505183531 63 213 3.5 8.7 0.00 0.20 0.20 71 1015.8
20260505183045 63 296 3.5 9.6 0.00 0.20 0.20 71 1015.7
20260505182533 63 234 5.2 11.3 0.00 0.20 0.20 71 1015.7
20260505182031 63 246 4.3 11.3 0.00 0.20 0.20 70 1015.7
20260505181549 63 281 4.3 9.6 0.00 0.20 0.20 70 1015.7
20260505181031 63 295 5.2 9.6 0.00 0.20 0.20 72 1015.7
20260505180531 62 250 3.5 7.8 0.00 0.20 0.20 73 1015.6
20260505180044 62 302 3.5 7.0 0.00 0.20 0.20 74 1015.6
20260505175532 61 264 2.6 7.8 0.00 0.20 0.20 76 1015.5
20260505175032 61 231 4.3 7.8 0.00 0.20 0.20 74 1015.5
20260505174551 61 272 3.5 7.8 0.00 0.20 0.20 75 1015.4
20260505174031 61 275 4.3 7.8 0.00 0.20 0.20 75 1015.4
20260505173530 61 309 3.5 7.8 0.00 0.20 0.20 75 1015.4
20260505173046 61 312 3.5 7.0 0.00 0.20 0.20 75 1015.3
20260505172530 61 261 3.5 8.7 0.00 0.20 0.20 74 1015.3
20260505172030 62 231 3.5 8.7 0.00 0.20 0.20 75 1015.2
20260505171551 62 262 4.3 8.7 0.00 0.20 0.20 76 1015.1
20260505171036 62 253 3.5 9.6 0.00 0.20 0.20 77 1015.1
20260505170530 61 250 4.3 9.6 0.00 0.20 0.20 77 1015.2
20260505170048 61 315 3.5 13.0 0.00 0.20 0.20 77 1015.1
20260505165535 61 284 5.2 13.0 0.00 0.20 0.20 77 1015.0
20260505165035 61 315 4.3 13.0 0.00 0.20 0.20 77 1015.0
20260505164605 61 298 1.7 7.0 0.00 0.20 0.20 77 1014.9
20260505164033 60 277 2.6 7.0 0.00 0.20 0.20 76 1014.9
20260505163531 60 263 2.6 7.0 0.00 0.20 0.20 78 1014.8
20260505163052 60 275 2.6 7.8 0.00 0.20 0.20 80 1014.8
20260505162535 60 250 2.6 7.8 0.00 0.20 0.20 81 1014.8
20260505162036 59 293 2.6 7.8 0.00 0.20 0.20 83 1014.7
20260505161545 59 294 3.5 7.8 0.00 0.20 0.20 84 1014.7
20260505161035 59 320 2.6 7.0 0.00 0.20 0.20 86 1014.6
20260505160536 59 290 2.6 7.0 0.00 0.20 0.20 87 1014.6
20260505153048 57 307 2.6 6.1 0.00 0.20 0.20 92 1014.4
20260505152536 57 345 2.6 6.1 0.00 0.20 0.20 92 1014.4
20260505152036 57 326 0.9 4.3 0.00 0.20 0.20 93 1014.3
20260505151547 57 284 1.7 4.3 0.00 0.20 0.20 93 1014.4
20260505151036 57 318 1.7 4.3 0.00 0.20 0.20 93 1014.3
20260505150536 57 307 1.7 3.5 0.00 0.20 0.20 93 1014.2
20260505140535 56 0 0.0 0.9 0.04 0.20 0.20 93 1013.8
20260505130113 56 0 0.0 0.9 0.01 0.16 0.16 92 1013.3
20260505125035 56 0 0.0 2.6 0.01 0.16 0.16 92 1013.3
20260505124610 56 0 0.0 3.5 0.02 0.16 0.16 92 1013.2
20260505124035 56 0 0.0 3.5 0.03 0.16 0.16 92 1013.2
20260505123535 56 27 0.0 3.5 0.03 0.16 0.16 92 1013.2
20260505123103 56 12 0.9 4.3 0.03 0.16 0.16 92 1013.2
20260505122534 56 0 1.7 7.0 0.05 0.16 0.16 92 1013.1
20260505122036 56 303 2.6 7.0 0.06 0.16 0.16 92 1013.1
20260505121553 56 296 0.9 3.5 0.06 0.16 0.16 92 1013.1
20260505121036 56 281 1.7 5.2 0.06 0.16 0.16 92 1013.0
20260505120535 56 259 1.7 7.0 0.05 0.15 0.15 92 1013.0
20260505120106 56 301 2.6 7.0 0.05 0.15 0.15 92 1013.1
20260505115535 56 306 2.6 7.8 0.05 0.15 0.15 91 1013.1
20260505115039 56 292 3.5 7.8 0.05 0.15 0.15 91 1013.1
20260505114549 56 227 1.7 3.5 0.04 0.14 0.14 91 1013.1
20260505114036 56 0 0.9 2.6 0.03 0.13 0.13 91 1013.1
20260505113540 56 0 0.0 0.9 0.03 0.13 0.13 91 1013.1
20260505113059 56 0 0.0 0.9 0.03 0.13 0.13 91 1013.0
20260505112540 56 0 0.0 0.0 0.01 0.11 0.11 91 1013.0
20260505112035 56 0 0.0 0.0 0.01 0.10 0.10 91 1013.0
20260505111553 56 0 0.0 0.0 0.09 0.10 0.10 91 1013.0
20260505111034 56 0 0.0 0.0 0.09 0.10 0.10 91 1013.1
20260505110535 56 0 0.0 0.9 0.09 0.10 0.10 91 1013.1
20260505110111 56 0 0.0 0.9 0.10 0.10 0.10 90 1013.0
20260505102035 57 273 3.5 7.0 0.09 0.09 0.09 90 1013.3
20260505101553 57 23 0.0 2.6 0.01 0.01 0.01 89 1013.3
20260505101035 57 264 0.0 2.6 0.01 0.01 0.01 89 1013.3
20260505100535 57 298 0.9 3.5 0.01 0.01 0.01 89 1013.3
20260505100045 57 296 0.0 3.5 0.00 0.00 0.00 89 1013.4
20260505095534 57 296 0.0 2.6 0.00 0.00 0.00 89 1013.4
20260505095036 57 288 0.0 1.7 0.00 0.00 0.00 88 1013.4
20260505094556 57 288 0.0 1.7 0.00 0.00 0.00 88 1013.4
20260505094034 57 0 0.0 0.9 0.00 0.00 0.00 88 1013.5
20260505093535 57 0 0.0 2.6 0.00 0.00 0.00 88 1013.5
20260505093052 57 0 0.0 2.6 0.00 0.00 0.00 87 1013.5
20260505092537 57 288 0.9 6.1 0.00 0.00 0.00 87 1013.5
20260505092033 57 295 1.7 6.1 0.00 0.00 0.00 87 1013.6
20260505091552 57 299 2.6 5.2 0.00 0.00 0.00 87 1013.6
20260505091038 57 272 1.7 5.2 0.00 0.00 0.00 86 1013.6
20260505090535 57 278 1.7 6.1 0.00 0.00 0.00 86 1013.6
20260505090046 58 272 1.7 7.8 0.00 0.00 0.00 85 1013.7
20260505085535 58 246 3.5 7.8 0.00 0.00 0.00 85 1013.8
20260505085038 58 287 2.6 7.0 0.00 0.00 0.00 85 1013.8
20260505084553 58 300 0.9 3.5 0.00 0.00 0.00 84 1013.8
20260505084031 58 311 0.9 3.5 0.00 0.00 0.00 84 1013.8
20260505083538 58 306 0.9 3.5 0.00 0.00 0.00 84 1013.8
20260505083057 58 283 0.9 2.6 0.00 0.00 0.00 84 1013.9
20260505082535 58 0 0.9 3.5 0.00 0.00 0.00 83 1013.9
20260505082035 58 306 0.9 3.5 0.00 0.00 0.00 83 1013.9
20260505081554 59 300 1.7 4.3 0.00 0.00 0.00 83 1014.1
20260505081037 59 313 0.9 4.3 0.00 0.00 0.00 83 1014.1
20260505080538 59 313 1.7 6.1 0.00 0.00 0.00 82 1014.1
20260505080104 59 245 1.7 6.1 0.00 0.00 0.00 81 1014.1
20260505075535 59 311 2.6 5.2 0.00 0.00 0.00 81 1014.2
20260505075035 59 298 1.7 6.1 0.00 0.00 0.00 80 1014.2
20260505074549 58 290 2.6 6.1 0.00 0.00 0.00 80 1014.3
20260505074035 59 299 2.6 7.0 0.00 0.00 0.00 80 1014.3
20260505073535 59 309 1.7 7.0 0.00 0.00 0.00 81 1014.2
20260505073050 59 300 3.5 7.0 0.00 0.00 0.00 82 1014.3
20260505072535 59 311 1.7 6.1 0.00 0.00 0.00 84 1014.3
20260505072039 59 261 2.6 6.1 0.00 0.00 0.00 84 1014.4
20260505071552 59 316 2.6 6.1 0.00 0.00 0.00 85 1014.4
20260505071032 59 321 2.6 5.2 0.00 0.00 0.00 85 1014.4
20260505070538 59 275 1.7 5.2 0.00 0.00 0.00 85 1014.4
20260505070050 59 311 2.6 6.1 0.00 0.00 0.00 85 1014.5
20260505065534 59 309 2.6 6.1 0.00 0.00 0.00 85 1014.5
20260505065034 59 264 2.6 5.2 0.00 0.00 0.00 85 1014.5
20260505064546 59 259 1.7 5.2 0.00 0.00 0.00 85 1014.5
20260505064033 59 302 1.7 5.2 0.00 0.00 0.00 85 1014.6
20260505063536 59 264 1.7 4.3 0.00 0.00 0.00 86 1014.6
20260505063049 59 267 0.9 4.3 0.00 0.00 0.00 86 1014.6
20260505062536 59 308 1.7 4.3 0.00 0.00 0.00 86 1014.6
20260505062036 59 294 0.9 3.5 0.00 0.00 0.00 86 1014.6
20260505061546 59 275 0.9 4.3 0.00 0.00 0.00 86 1014.7
20260505061035 59 306 1.7 4.3 0.00 0.00 0.00 86 1014.7
20260505060538 59 269 2.6 4.3 0.00 0.00 0.00 86 1014.7
20260505060048 59 250 1.7 4.3 0.00 0.00 0.00 86 1014.8
20260505055536 59 240 2.6 4.3 0.00 0.00 0.00 86 1014.8
20260505055035 59 265 1.7 6.1 0.00 0.00 0.00 86 1014.8
20260505054553 59 315 1.7 6.1 0.00 0.00 0.00 85 1014.9
20260505054035 59 243 1.7 6.1 0.00 0.00 0.00 85 1014.9
20260505053534 59 294 2.6 7.0 0.00 0.00 0.00 86 1014.9
20260505053056 59 313 2.6 7.0 0.00 0.00 0.00 86 1015.0
20260505052535 59 304 1.7 7.0 0.00 0.00 0.00 86 1015.1
20260505052034 59 288 3.5 7.0 0.00 0.00 0.00 86 1015.2
20260505051550 59 245 2.6 9.6 0.00 0.00 0.00 85 1015.2
20260505051036 59 315 4.3 9.6 0.00 0.00 0.00 85 1015.2
20260505050536 59 294 3.5 7.8 0.00 0.00 0.00 85 1015.2
20260505041545 60 286 5.2 11.3 0.00 0.00 0.00 83 1015.2
20260505041034 61 292 4.3 11.3 0.00 0.00 0.00 82 1015.1
20260505040539 61 306 6.1 11.3 0.00 0.00 0.00 81 1015.1
20260505040053 61 309 2.6 7.0 0.00 0.00 0.00 78 1015.0
20260505035534 61 265 0.9 5.2 0.00 0.00 0.00 76 1015.1
20260505035036 61 250 1.7 6.1 0.00 0.00 0.00 76 1015.1
20260505034547 61 256 1.7 6.1 0.00 0.00 0.00 75 1015.1
20260505034035 61 254 3.5 7.0 0.00 0.00 0.00 75 1015.0
20260505033535 61 244 3.5 7.0 0.00 0.00 0.00 76 1015.0
20260505033048 61 313 1.7 6.1 0.00 0.00 0.00 77 1014.9
20260505032535 61 248 2.6 6.1 0.00 0.00 0.00 77 1015.0
20260505032034 61 304 1.7 6.1 0.00 0.00 0.00 78 1015.1
20260505031550 61 270 1.7 7.0 0.00 0.00 0.00 78 1014.9
20260505031035 61 309 2.6 7.0 0.00 0.00 0.00 78 1014.8
20260505030535 61 265 2.6 6.1 0.00 0.00 0.00 78 1014.7
20260505030052 61 294 1.7 5.2 0.00 0.00 0.00 78 1014.8
20260505025538 61 265 1.7 5.2 0.00 0.00 0.00 77 1014.7
20260505025031 61 324 2.6 5.2 0.00 0.00 0.00 77 1014.6
20260505024547 61 265 1.7 6.1 0.00 0.00 0.00 77 1014.5
20260505024032 61 279 1.7 6.1 0.00 0.00 0.00 77 1014.5
20260505023534 61 275 1.7 6.1 0.00 0.00 0.00 76 1014.6
20260505023055 61 292 2.6 6.1 0.00 0.00 0.00 76 1014.6
20260505022535 61 275 1.7 7.0 0.00 0.00 0.00 76 1014.7
20260505022039 61 270 2.6 7.0 0.00 0.00 0.00 76 1014.7
20260505021546 61 281 2.6 7.0 0.00 0.00 0.00 76 1014.7
20260505021035 62 254 3.5 7.0 0.00 0.00 0.00 76 1014.9
20260505020538 62 294 2.6 7.8 0.00 0.00 0.00 76 1014.7
20260505020047 62 261 2.6 7.8 0.00 0.00 0.00 76 1014.8
20260505015535 62 236 2.6 7.8 0.00 0.00 0.00 75 1014.7
20260505015035 62 263 3.5 7.8 0.00 0.00 0.00 75 1014.7
20260505014544 63 254 4.3 7.8 0.00 0.00 0.00 75 1014.7
20260505014034 63 270 3.5 7.8 0.00 0.00 0.00 76 1014.8
20260505013531 63 286 2.6 7.8 0.00 0.00 0.00 75 1015.0
20260505013051 63 250 3.5 9.6 0.00 0.00 0.00 75 1015.0
20260505012534 63 315 3.5 9.6 0.00 0.00 0.00 74 1015.0
20260505012032 63 277 4.3 9.6 0.00 0.00 0.00 74 1014.8
20260505011553 63 320 4.3 8.7 0.00 0.00 0.00 74 1014.9
20260505011039 63 269 4.3 7.8 0.00 0.00 0.00 74 1014.9
20260505010531 63 312 3.5 7.8 0.00 0.00 0.00 73 1015.0
20260505010050 64 284 4.3 7.8 0.00 0.00 0.00 72 1015.0
20260505005532 64 221 3.5 7.8 0.00 0.00 0.00 71 1015.1
20260505005035 65 304 3.5 8.7 0.00 0.00 0.00 70 1015.1
20260505004547 66 290 4.3 8.7 0.00 0.00 0.00 70 1015.1
20260505004032 66 206 5.2 8.7 0.00 0.00 0.00 70 1015.0
20260505003537 66 252 4.3 10.4 0.00 0.00 0.00 69 1015.2
20260505003044 66 284 3.5 10.4 0.00 0.00 0.00 70 1015.2
20260505002533 66 299 3.5 7.8 0.00 0.00 0.00 69 1015.2
20260505002032 66 312 4.3 10.4 0.00 0.00 0.00 70 1015.1
20260505001548 66 307 5.2 11.3 0.00 0.00 0.00 70 1015.1
20260505001034 66 247 6.1 11.3 0.00 0.00 0.00 69 1015.1
20260505000531 66 243 5.2 9.6 0.00 0.00 0.00 68 1015.1
20260505000044 66 267 5.2 9.6 0.00 0.00 0.00 68 1015.0
20260504235531 67 281 4.3 8.7 0.00 0.00 0.00 68 1015.1
20260504235032 66 261 5.2 10.4 0.00 0.00 0.00 68 1015.1
20260504234548 66 232 5.2 11.3 0.00 0.00 0.00 66 1015.1
20260504234036 66 295 4.3 11.3 0.00 0.00 0.00 69 1015.1
20260504233540 65 313 4.3 11.3 0.00 0.00 0.00 72 1015.1
20260504233049 64 240 5.2 11.3 0.00 0.00 0.00 71 1015.2
20260504232534 65 310 4.3 9.6 0.00 0.00 0.00 69 1015.2
20260504232035 65 228 5.2 10.4 0.00 0.00 0.00 70 1015.2
20260504231543 65 306 5.2 10.4 0.00 0.00 0.00 69 1015.1
20260504231034 66 315 5.2 12.2 0.00 0.00 0.00 66 1015.1
20260504230535 66 298 5.2 12.2 0.00 0.00 0.00 65 1015.1
20260504230047 66 265 5.2 10.4 0.00 0.00 0.00 65 1015.1
20260504225535 67 248 7.0 10.4 0.00 0.00 0.00 66 1015.1
20260504225038 67 268 4.3 11.3 0.00 0.00 0.00 67 1015.0
20260504224543 66 290 5.2 11.3 0.00 0.00 0.00 66 1015.0
20260504224031 66 288 5.2 12.2 0.00 0.00 0.00 67 1015.1
20260504223531 67 273 6.1 12.2 0.00 0.00 0.00 66 1015.1
20260504223044 66 247 5.2 9.6 0.00 0.00 0.00 65 1015.1
20260504222532 66 296 6.1 9.6 0.00 0.00 0.00 68 1015.1
20260504222031 66 301 5.2 9.6 0.00 0.00 0.00 67 1015.2
20260504221546 66 265 6.1 9.6 0.00 0.00 0.00 66 1015.3
20260504221031 67 281 4.3 11.3 0.00 0.00 0.00 68 1015.3
20260504220535 67 281 6.1 11.3 0.00 0.00 0.00 69 1015.5
20260504220107 67 292 6.1 11.3 0.00 0.00 0.00 68 1015.6
20260504215533 67 246 5.2 10.4 0.00 0.00 0.00 68 1015.6
20260504215125 67 306 5.2 10.4 0.00 0.00 0.00 68 1015.6
20260504214555 67 247 5.2 11.3 0.00 0.00 0.00 68 1015.5
20260504214034 67 308 5.2 13.0 0.00 0.00 0.00 69 1015.7
20260504213534 67 307 5.2 13.0 0.00 0.00 0.00 68 1015.8
20260504213053 67 294 5.2 10.4 0.00 0.00 0.00 68 1015.8
20260504212532 67 290 4.3 9.6 0.00 0.00 0.00 70 1015.7
20260504212032 66 324 5.2 9.6 0.00 0.00 0.00 69 1015.8
20260504211555 67 311 6.1 12.2 0.00 0.00 0.00 68 1015.9
20260504211034 67 298 5.2 12.2 0.00 0.00 0.00 67 1015.9
20260504210531 67 282 5.2 10.4 0.00 0.00 0.00 67 1015.9
20260504210048 67 242 5.2 10.4 0.00 0.00 0.00 66 1015.9
20260504205530 67 277 4.3 11.3 0.00 0.00 0.00 67 1016.0
20260504205031 67 258 5.2 12.2 0.00 0.00 0.00 67 1016.0
20260504204546 67 238 3.5 12.2 0.00 0.00 0.00 67 1015.9
20260504204032 66 224 5.2 10.4 0.00 0.00 0.00 68 1015.9
20260504203532 67 300 5.2 10.4 0.00 0.00 0.00 66 1015.9
20260504203054 67 292 4.3 9.6 0.00 0.00 0.00 68 1015.9
20260504202532 67 306 3.5 9.6 0.00 0.00 0.00 68 1015.9
20260504202032 66 280 3.5 9.6 0.00 0.00 0.00 69 1015.8
20260504201553 66 311 5.2 9.6 0.00 0.00 0.00 69 1015.9
20260504201031 66 298 5.2 8.7 0.00 0.00 0.00 69 1016.0
20260504200531 66 301 3.5 8.7 0.00 0.00 0.00 69 1016.0
20260504200055 65 244 3.5 7.8 0.00 0.00 0.00 69 1016.0
20260504195531 65 289 3.5 7.8 0.00 0.00 0.00 70 1015.9
20260504195031 65 299 2.6 7.0 0.00 0.00 0.00 68 1015.9
20260504194548 65 241 3.5 12.2 0.00 0.00 0.00 69 1015.9
20260504194034 65 288 4.3 12.2 0.00 0.00 0.00 70 1016.0